contact:dominique.lefevre@mio.osupytheas.fr, maurice.libes@osupytheas.fr, didier.mallarino@osupytheas.fr
Project:EMSO http://www.emso-fr.org/EMSO-France
Depth: 2436.0 m
Title:EMSO Ligure Ouest : Data MII capteur MICROCAT
DateTime_Computer,Latitude,Longitude,Temperature,Conductivity,Pressure,DateTime_Instrument
DateTime_Computer,Latitude,Longitude,degC,S m-1,dbar,DateTime_Instrument
2020-02-19T00:01:26Z,42.805,6.029,13.2968,4.59975,2469.96,2020-2-19T02:02:02Z
2020-02-19T00:04:30Z,42.805,6.029,13.2968,4.59977,2469.96,2020-2-19T02:05:05Z
2020-02-19T00:07:33Z,42.805,6.029,13.2968,4.59973,2469.947,2020-2-19T02:08:08Z
2020-02-19T00:10:36Z,42.805,6.029,13.2971,4.59973,2469.923,2020-2-19T02:11:11Z
2020-02-19T00:13:39Z,42.805,6.029,13.2972,4.59972,2469.9,2020-2-19T02:14:15Z
2020-02-19T00:16:43Z,42.805,6.029,13.2968,4.59973,2469.9,2020-2-19T02:17:18Z
2020-02-19T00:19:46Z,42.805,6.029,13.2971,4.59973,2469.9,2020-2-19T02:20:21Z
2020-02-19T00:22:49Z,42.805,6.029,13.2968,4.59973,2469.923,2020-2-19T02:23:24Z
2020-02-19T00:25:52Z,42.805,6.029,13.2965,4.59974,2469.9,2020-2-19T02:26:27Z
2020-02-19T00:28:55Z,42.805,6.029,13.2968,4.59972,2469.947,2020-2-19T02:29:31Z
2020-02-19T00:31:59Z,42.805,6.029,13.2972,4.59973,2469.947,2020-2-19T02:32:34Z
2020-02-19T00:35:02Z,42.805,6.029,13.2970,4.59972,2469.947,2020-2-19T02:35:37Z
2020-02-19T00:38:05Z,42.805,6.029,13.2971,4.59974,2469.923,2020-2-19T02:38:40Z
2020-02-19T00:41:08Z,42.805,6.029,13.2967,4.59974,2469.923,2020-2-19T02:41:43Z
2020-02-19T00:44:11Z,42.805,6.029,13.2972,4.59976,2469.947,2020-2-19T02:44:47Z
2020-02-19T00:47:15Z,42.805,6.029,13.2968,4.59973,2469.947,2020-2-19T02:47:50Z
2020-02-19T00:50:18Z,42.805,6.029,13.2971,4.59974,2469.937,2020-2-19T02:50:53Z
2020-02-19T00:53:21Z,42.805,6.029,13.2970,4.59973,2469.96,2020-2-19T02:53:56Z
2020-02-19T00:56:24Z,42.805,6.029,13.2971,4.59978,2469.96,2020-2-19T02:56:59Z
2020-02-19T00:59:27Z,42.805,6.029,13.2970,4.59973,2469.947,2020-2-19T03:00:02Z
2020-02-19T01:02:30Z,42.805,6.029,13.2966,4.59973,2469.97,2020-2-19T03:03:06Z
2020-02-19T01:05:34Z,42.805,6.029,13.2972,4.59974,2469.947,2020-2-19T03:06:09Z
2020-02-19T01:08:37Z,42.805,6.029,13.2971,4.59973,2469.984,2020-2-19T03:09:12Z
2020-02-19T01:11:40Z,42.805,6.029,13.2968,4.59973,2469.984,2020-2-19T03:12:15Z
2020-02-19T01:14:43Z,42.805,6.029,13.2968,4.59973,2469.97,2020-2-19T03:15:18Z
2020-02-19T01:17:46Z,42.805,6.029,13.2971,4.59975,2469.97,2020-2-19T03:18:22Z
2020-02-19T01:20:50Z,42.805,6.029,13.2969,4.59973,2469.984,2020-2-19T03:21:25Z
2020-02-19T01:23:53Z,42.805,6.029,13.2971,4.59971,2469.97,2020-2-19T03:24:28Z
2020-02-19T01:26:56Z,42.805,6.029,13.2972,4.59973,2470.007,2020-2-19T03:27:31Z
2020-02-19T01:29:59Z,42.805,6.029,13.2967,4.59978,2469.97,2020-2-19T03:30:34Z
2020-02-19T01:33:02Z,42.805,6.029,13.2968,4.59976,2470.007,2020-2-19T03:33:38Z
2020-02-19T01:36:06Z,42.805,6.029,13.2970,4.59973,2469.947,2020-2-19T03:36:41Z
2020-02-19T01:39:09Z,42.805,6.029,13.2970,4.59971,2469.984,2020-2-19T03:39:44Z
2020-02-19T01:42:12Z,42.805,6.029,13.2970,4.59973,2469.984,2020-2-19T03:42:47Z
2020-02-19T01:45:15Z,42.805,6.029,13.2970,4.59972,2469.96,2020-2-19T03:45:50Z
2020-02-19T01:48:19Z,42.805,6.029,13.2968,4.59972,2469.96,2020-2-19T03:48:54Z
2020-02-19T01:51:22Z,42.805,6.029,13.2968,4.59973,2469.979,2020-2-19T03:51:57Z
2020-02-19T01:54:25Z,42.805,6.029,13.2970,4.59973,2470.03,2020-2-19T03:55:00Z
2020-02-19T01:57:28Z,42.805,6.029,13.2968,4.59973,2470.007,2020-2-19T03:58:03Z
2020-02-19T02:00:31Z,42.805,6.029,13.2971,4.59973,2470.007,2020-2-19T04:01:06Z
2020-02-19T02:03:34Z,42.805,6.029,13.2968,4.59975,2470.007,2020-2-19T04:04:10Z
2020-02-19T02:06:38Z,42.805,6.029,13.2968,4.59973,2469.984,2020-2-19T04:07:13Z
2020-02-19T02:09:41Z,42.805,6.029,13.2966,4.59972,2470.017,2020-2-19T04:10:16Z
2020-02-19T02:12:44Z,42.805,6.029,13.2971,4.59972,2469.993,2020-2-19T04:13:19Z
2020-02-19T02:15:47Z,42.805,6.029,13.2969,4.59972,2469.993,2020-2-19T04:16:23Z
2020-02-19T02:18:51Z,42.805,6.029,13.2968,4.59972,2470.017,2020-2-19T04:19:26Z
2020-02-19T02:21:54Z,42.805,6.029,13.2971,4.59971,2470.03,2020-2-19T04:22:29Z
2020-02-19T02:24:57Z,42.805,6.029,13.2971,4.59975,2469.97,2020-2-19T04:25:32Z
2020-02-19T02:28:00Z,42.805,6.029,13.2967,4.59972,2470.04,2020-2-19T04:28:35Z
2020-02-19T02:31:03Z,42.805,6.029,13.2968,4.59973,2470.007,2020-2-19T04:31:39Z
2020-02-19T02:34:07Z,42.805,6.029,13.2969,4.59973,2470.007,2020-2-19T04:34:42Z
2020-02-19T02:37:10Z,42.805,6.029,13.2971,4.59975,2470.053,2020-2-19T04:37:45Z
2020-02-19T02:40:13Z,42.805,6.029,13.2971,4.59972,2470.03,2020-2-19T04:40:48Z
2020-02-19T02:43:16Z,42.805,6.029,13.2969,4.59972,2470.053,2020-2-19T04:43:51Z
2020-02-19T02:46:19Z,42.805,6.029,13.2967,4.59972,2470.017,2020-2-19T04:46:55Z
2020-02-19T02:49:23Z,42.805,6.029,13.2968,4.59973,2470.007,2020-2-19T04:49:58Z
2020-02-19T02:52:26Z,42.805,6.029,13.2968,4.59973,2470.03,2020-2-19T04:53:01Z
2020-02-19T02:55:29Z,42.805,6.029,13.2968,4.59972,2470.017,2020-2-19T04:56:04Z
2020-02-19T02:58:32Z,42.805,6.029,13.2974,4.59972,2470.04,2020-2-19T04:59:07Z
2020-02-19T03:01:35Z,42.805,6.029,13.2968,4.59974,2470.017,2020-2-19T05:02:11Z
2020-02-19T03:04:39Z,42.805,6.029,13.2970,4.59973,2470.017,2020-2-19T05:05:14Z
2020-02-19T03:07:42Z,42.805,6.029,13.2971,4.59974,2470.04,2020-2-19T05:08:17Z
2020-02-19T03:10:45Z,42.805,6.029,13.2971,4.59974,2470.077,2020-2-19T05:11:20Z
2020-02-19T03:13:48Z,42.805,6.029,13.2968,4.59973,2470.04,2020-2-19T05:14:23Z
2020-02-19T03:16:51Z,42.805,6.029,13.2972,4.59973,2470.063,2020-2-19T05:17:27Z
2020-02-19T03:19:55Z,42.805,6.029,13.2972,4.59973,2470.03,2020-2-19T05:20:30Z
2020-02-19T03:22:58Z,42.805,6.029,13.2969,4.59972,2470.053,2020-2-19T05:23:33Z
2020-02-19T03:26:01Z,42.805,6.029,13.2971,4.59973,2470.03,2020-2-19T05:26:36Z
2020-02-19T03:29:04Z,42.805,6.029,13.2965,4.59973,2470.04,2020-2-19T05:29:40Z
2020-02-19T03:32:08Z,42.805,6.029,13.2970,4.59974,2470.03,2020-2-19T05:32:43Z
2020-02-19T03:35:11Z,42.805,6.029,13.2972,4.59973,2470.053,2020-2-19T05:35:46Z
2020-02-19T03:38:14Z,42.805,6.029,13.2969,4.59973,2470.044,2020-2-19T05:38:49Z
2020-02-19T03:41:17Z,42.805,6.029,13.2970,4.59973,2470.04,2020-2-19T05:41:53Z
2020-02-19T03:44:21Z,42.805,6.029,13.2972,4.59973,2470.04,2020-2-19T05:44:56Z
2020-02-19T03:47:24Z,42.805,6.029,13.2968,4.59973,2470.063,2020-2-19T05:47:59Z
2020-02-19T03:50:27Z,42.805,6.029,13.2968,4.59974,2470.04,2020-2-19T05:51:03Z
2020-02-19T03:53:31Z,42.805,6.029,13.2967,4.59974,2470.063,2020-2-19T05:54:06Z
2020-02-19T03:56:34Z,42.805,6.029,13.2971,4.59975,2470.053,2020-2-19T05:57:09Z
2020-02-19T03:59:37Z,42.805,6.029,13.2971,4.59977,2470.04,2020-2-19T06:00:12Z
2020-02-19T04:02:40Z,42.805,6.029,13.2972,4.59973,2470.063,2020-2-19T06:03:15Z
2020-02-19T04:05:43Z,42.805,6.029,13.2968,4.59975,2470.077,2020-2-19T06:06:19Z
2020-02-19T04:08:47Z,42.805,6.029,13.2969,4.59973,2470.063,2020-2-19T06:09:22Z
2020-02-19T04:11:50Z,42.805,6.029,13.2974,4.59973,2470.077,2020-2-19T06:12:25Z
2020-02-19T04:14:53Z,42.805,6.029,13.2967,4.59973,2470.04,2020-2-19T06:15:28Z
2020-02-19T04:17:56Z,42.805,6.029,13.2968,4.59974,2470.063,2020-2-19T06:18:31Z
2020-02-19T04:20:59Z,42.805,6.029,13.2970,4.59973,2470.053,2020-2-19T06:21:35Z
2020-02-19T04:24:03Z,42.805,6.029,13.2971,4.59975,2470.063,2020-2-19T06:24:38Z
2020-02-19T04:27:06Z,42.805,6.029,13.2967,4.59973,2470.077,2020-2-19T06:27:41Z
2020-02-19T04:30:09Z,42.805,6.029,13.2968,4.59973,2470.077,2020-2-19T06:30:44Z
2020-02-19T04:33:12Z,42.805,6.029,13.2971,4.59972,2470.063,2020-2-19T06:33:47Z
2020-02-19T04:36:15Z,42.805,6.029,13.2974,4.59974,2470.04,2020-2-19T06:36:51Z
2020-02-19T04:39:19Z,42.805,6.029,13.2972,4.59973,2470.077,2020-2-19T06:39:54Z
2020-02-19T04:42:22Z,42.805,6.029,13.2965,4.59971,2470.063,2020-2-19T06:42:57Z
2020-02-19T04:45:25Z,42.805,6.029,13.2967,4.59973,2470.077,2020-2-19T06:46:00Z
2020-02-19T04:48:28Z,42.805,6.029,13.2968,4.59972,2470.077,2020-2-19T06:49:03Z
2020-02-19T04:51:31Z,42.805,6.029,13.2968,4.59972,2470.1,2020-2-19T06:52:07Z
2020-02-19T04:54:35Z,42.805,6.029,13.2967,4.59974,2470.077,2020-2-19T06:55:10Z
2020-02-19T04:57:38Z,42.805,6.029,13.2971,4.59971,2470.053,2020-2-19T06:58:13Z
2020-02-19T05:00:41Z,42.805,6.029,13.2968,4.59973,2470.063,2020-2-19T07:01:16Z
2020-02-19T05:03:44Z,42.805,6.029,13.2968,4.59971,2470.063,2020-2-19T07:04:19Z
2020-02-19T05:06:47Z,42.805,6.029,13.2972,4.59972,2470.053,2020-2-19T07:07:23Z
2020-02-19T05:09:51Z,42.805,6.029,13.2971,4.59973,2470.063,2020-2-19T07:10:26Z
2020-02-19T05:12:54Z,42.805,6.029,13.2967,4.59973,2470.087,2020-2-19T07:13:29Z
2020-02-19T05:15:57Z,42.805,6.029,13.2971,4.59971,2470.063,2020-2-19T07:16:32Z
2020-02-19T05:19:00Z,42.805,6.029,13.2968,4.59973,2470.063,2020-2-19T07:19:35Z
2020-02-19T05:22:03Z,42.805,6.029,13.2970,4.59974,2470.1,2020-2-19T07:22:39Z
2020-02-19T05:25:07Z,42.805,6.029,13.2968,4.59972,2470.077,2020-2-19T07:25:42Z
2020-02-19T05:28:10Z,42.805,6.029,13.2968,4.59973,2470.077,2020-2-19T07:28:45Z
2020-02-19T05:31:13Z,42.805,6.029,13.2971,4.59972,2470.077,2020-2-19T07:31:49Z
2020-02-19T05:34:17Z,42.805,6.029,13.2972,4.59973,2470.053,2020-2-19T07:34:52Z
2020-02-19T05:37:20Z,42.805,6.029,13.2968,4.59973,2470.1,2020-2-19T07:37:55Z
2020-02-19T05:40:23Z,42.805,6.029,13.2967,4.59972,2470.091,2020-2-19T07:40:59Z
2020-02-19T05:43:27Z,42.805,6.029,13.2964,4.59974,2470.017,2020-2-19T07:44:02Z
2020-02-19T05:46:30Z,42.805,6.029,13.2972,4.59972,2470.063,2020-2-19T07:47:05Z
2020-02-19T05:49:33Z,42.805,6.029,13.2967,4.59973,2470.04,2020-2-19T07:50:08Z
2020-02-19T05:52:36Z,42.805,6.029,13.2968,4.59974,2470.077,2020-2-19T07:53:11Z
2020-02-19T05:55:39Z,42.805,6.029,13.2970,4.59973,2470.077,2020-2-19T07:56:15Z
2020-02-19T05:58:43Z,42.805,6.029,13.2966,4.59975,2470.077,2020-2-19T07:59:18Z
2020-02-19T06:01:46Z,42.805,6.029,13.2969,4.59972,2470.053,2020-2-19T08:02:21Z
2020-02-19T06:04:49Z,42.805,6.029,13.2970,4.59972,2470.04,2020-2-19T08:05:24Z
2020-02-19T06:07:52Z,42.805,6.029,13.2967,4.59972,2470.053,2020-2-19T08:08:27Z
2020-02-19T06:10:55Z,42.805,6.029,13.2969,4.59971,2470.087,2020-2-19T08:11:31Z
2020-02-19T06:13:59Z,42.805,6.029,13.2967,4.59971,2470.077,2020-2-19T08:14:34Z
2020-02-19T06:17:02Z,42.805,6.029,13.2969,4.59972,2470.063,2020-2-19T08:17:37Z
2020-02-19T06:20:05Z,42.805,6.029,13.2969,4.59973,2470.053,2020-2-19T08:20:40Z
2020-02-19T06:23:08Z,42.805,6.029,13.2971,4.59973,2470.067,2020-2-19T08:23:43Z
2020-02-19T06:26:11Z,42.805,6.029,13.2968,4.59972,2470.053,2020-2-19T08:26:46Z
2020-02-19T06:29:15Z,42.805,6.029,13.2965,4.59973,2470.04,2020-2-19T08:29:50Z
2020-02-19T06:32:18Z,42.805,6.029,13.2969,4.59974,2470.017,2020-2-19T08:32:53Z
2020-02-19T06:35:21Z,42.805,6.029,13.2965,4.59974,2470.077,2020-2-19T08:35:56Z
2020-02-19T06:38:24Z,42.805,6.029,13.2967,4.59973,2470.026,2020-2-19T08:38:59Z
2020-02-19T06:41:27Z,42.805,6.029,13.2971,4.59972,2470.063,2020-2-19T08:42:03Z
2020-02-19T06:44:31Z,42.805,6.029,13.2965,4.59972,2470.053,2020-2-19T08:45:06Z
2020-02-19T06:47:34Z,42.805,6.029,13.2969,4.59971,2470.063,2020-2-19T08:48:09Z
2020-02-19T06:50:37Z,42.805,6.029,13.2965,4.59971,2470.017,2020-2-19T08:51:12Z
2020-02-19T06:53:40Z,42.805,6.029,13.2970,4.59972,2470.053,2020-2-19T08:54:15Z
2020-02-19T06:56:43Z,42.805,6.029,13.2967,4.59971,2470.063,2020-2-19T08:57:19Z
2020-02-19T06:59:46Z,42.805,6.029,13.2971,4.59971,2470.053,2020-2-19T09:00:22Z
2020-02-19T07:02:50Z,42.805,6.029,13.2971,4.59972,2470.04,2020-2-19T09:03:25Z
2020-02-19T07:05:53Z,42.805,6.029,13.2967,4.59972,2470.04,2020-2-19T09:06:28Z
2020-02-19T07:08:56Z,42.805,6.029,13.2971,4.59972,2470.03,2020-2-19T09:09:31Z
2020-02-19T07:11:59Z,42.805,6.029,13.2970,4.59971,2470.017,2020-2-19T09:12:34Z
2020-02-19T07:15:02Z,42.805,6.029,13.2968,4.59972,2470.053,2020-2-19T09:15:38Z
2020-02-19T07:18:06Z,42.805,6.029,13.2971,4.59971,2470.017,2020-2-19T09:18:41Z
2020-02-19T07:21:09Z,42.805,6.029,13.2968,4.59971,2470.063,2020-2-19T09:21:44Z
2020-02-19T07:24:12Z,42.805,6.029,13.2970,4.59973,2470.03,2020-2-19T09:24:47Z
2020-02-19T07:27:15Z,42.805,6.029,13.2969,4.59971,2470.053,2020-2-19T09:27:50Z
2020-02-19T07:30:18Z,42.805,6.029,13.2966,4.59973,2470.04,2020-2-19T09:30:54Z
2020-02-19T07:33:22Z,42.805,6.029,13.2971,4.59972,2470.063,2020-2-19T09:33:57Z
2020-02-19T07:36:25Z,42.805,6.029,13.2968,4.59971,2470.063,2020-2-19T09:37:00Z
2020-02-19T07:39:28Z,42.805,6.029,13.2969,4.59970,2470.063,2020-2-19T09:40:03Z
2020-02-19T07:42:31Z,42.805,6.029,13.2967,4.59972,2470.053,2020-2-19T09:43:06Z
2020-02-19T07:45:34Z,42.805,6.029,13.2968,4.59970,2470.017,2020-2-19T09:46:10Z
2020-02-19T07:48:38Z,42.805,6.029,13.2967,4.59970,2470.053,2020-2-19T09:49:13Z
2020-02-19T07:51:41Z,42.805,6.029,13.2968,4.59971,2470.017,2020-2-19T09:52:16Z
2020-02-19T07:54:44Z,42.805,6.029,13.2968,4.59970,2470.04,2020-2-19T09:55:19Z
2020-02-19T07:57:47Z,42.805,6.029,13.2967,4.59971,2469.993,2020-2-19T09:58:22Z
2020-02-19T08:00:50Z,42.805,6.029,13.2965,4.59970,2470.077,2020-2-19T10:01:26Z
2020-02-19T08:03:53Z,42.805,6.029,13.2968,4.59969,2470.017,2020-2-19T10:04:29Z
2020-02-19T08:06:57Z,42.805,6.029,13.2967,4.59971,2470.017,2020-2-19T10:07:32Z
2020-02-19T08:10:00Z,42.805,6.029,13.2967,4.59970,2470.007,2020-2-19T10:10:35Z
2020-02-19T08:13:03Z,42.805,6.029,13.2971,4.59969,2470.017,2020-2-19T10:13:38Z
2020-02-19T08:16:06Z,42.805,6.029,13.2968,4.59971,2469.993,2020-2-19T10:16:41Z
2020-02-19T08:19:10Z,42.805,6.029,13.2971,4.59971,2470.03,2020-2-19T10:19:45Z
2020-02-19T08:22:13Z,42.805,6.029,13.2965,4.59971,2470.03,2020-2-19T10:22:48Z
2020-02-19T08:25:16Z,42.805,6.029,13.2968,4.59971,2470.053,2020-2-19T10:25:51Z
2020-02-19T08:28:19Z,42.805,6.029,13.2968,4.59971,2470.03,2020-2-19T10:28:54Z
2020-02-19T08:31:22Z,42.805,6.029,13.2968,4.59971,2469.993,2020-2-19T10:31:57Z
2020-02-19T08:34:25Z,42.805,6.029,13.2970,4.59972,2470.03,2020-2-19T10:35:01Z
2020-02-19T08:37:29Z,42.805,6.029,13.2967,4.59973,2470.04,2020-2-19T10:38:04Z
2020-02-19T08:40:32Z,42.805,6.029,13.2967,4.59970,2470.017,2020-2-19T10:41:07Z
2020-02-19T08:43:35Z,42.805,6.029,13.2971,4.59970,2470.007,2020-2-19T10:44:10Z
2020-02-19T08:46:38Z,42.805,6.029,13.2973,4.59970,2470.007,2020-2-19T10:47:14Z
2020-02-19T08:49:42Z,42.805,6.029,13.2970,4.59971,2470.03,2020-2-19T10:50:17Z
2020-02-19T08:52:45Z,42.805,6.029,13.2971,4.59970,2470.007,2020-2-19T10:53:20Z
2020-02-19T08:55:48Z,42.805,6.029,13.2968,4.59971,2470.003,2020-2-19T10:56:23Z
2020-02-19T08:58:51Z,42.805,6.029,13.2971,4.59970,2470.017,2020-2-19T10:59:26Z
2020-02-19T09:01:54Z,42.805,6.029,13.2971,4.59971,2470.017,2020-2-19T11:02:30Z
2020-02-19T09:04:58Z,42.805,6.029,13.2968,4.59971,2469.993,2020-2-19T11:05:33Z
2020-02-19T09:08:01Z,42.805,6.029,13.2968,4.59973,2469.993,2020-2-19T11:08:36Z
2020-02-19T09:11:04Z,42.805,6.029,13.2968,4.59971,2470.007,2020-2-19T11:11:39Z
2020-02-19T09:14:07Z,42.805,6.029,13.2968,4.59970,2470.017,2020-2-19T11:14:42Z
2020-02-19T09:17:10Z,42.805,6.029,13.2967,4.59971,2470.007,2020-2-19T11:17:46Z
2020-02-19T09:20:14Z,42.805,6.029,13.2970,4.59969,2470.021,2020-2-19T11:20:49Z
2020-02-19T09:23:17Z,42.805,6.029,13.2966,4.59970,2469.993,2020-2-19T11:23:52Z
2020-02-19T09:26:20Z,42.805,6.029,13.2971,4.59971,2469.96,2020-2-19T11:26:55Z
2020-02-19T09:29:23Z,42.805,6.029,13.2969,4.59973,2470.03,2020-2-19T11:29:58Z
2020-02-19T09:32:26Z,42.805,6.029,13.2966,4.59970,2469.97,2020-2-19T11:33:02Z
2020-02-19T09:35:30Z,42.805,6.029,13.2967,4.59969,2469.993,2020-2-19T11:36:05Z
2020-02-19T09:38:33Z,42.805,6.029,13.2967,4.59969,2469.96,2020-2-19T11:39:08Z
2020-02-19T09:41:36Z,42.805,6.029,13.2970,4.59969,2469.947,2020-2-19T11:42:11Z
2020-02-19T09:44:39Z,42.805,6.029,13.2971,4.59969,2469.984,2020-2-19T11:45:14Z
2020-02-19T09:47:42Z,42.805,6.029,13.2970,4.59972,2469.993,2020-2-19T11:48:18Z
2020-02-19T09:50:46Z,42.805,6.029,13.2971,4.59968,2469.97,2020-2-19T11:51:21Z
2020-02-19T09:53:49Z,42.805,6.029,13.2969,4.59969,2469.993,2020-2-19T11:54:24Z
2020-02-19T09:56:52Z,42.805,6.029,13.2969,4.59970,2469.993,2020-2-19T11:57:27Z
2020-02-19T09:59:55Z,42.805,6.029,13.2966,4.59970,2469.97,2020-2-19T12:00:31Z
2020-02-19T10:02:59Z,42.805,6.029,13.2966,4.59969,2469.984,2020-2-19T12:03:34Z
2020-02-19T10:06:02Z,42.805,6.029,13.2967,4.59968,2469.993,2020-2-19T12:06:37Z
2020-02-19T10:09:05Z,42.805,6.029,13.2967,4.59971,2469.97,2020-2-19T12:09:40Z
2020-02-19T10:12:08Z,42.805,6.029,13.2968,4.59969,2469.984,2020-2-19T12:12:44Z
2020-02-19T10:15:12Z,42.805,6.029,13.2967,4.59970,2470.017,2020-2-19T12:15:47Z
2020-02-19T10:18:15Z,42.805,6.029,13.2971,4.59969,2469.96,2020-2-19T12:18:50Z
2020-02-19T10:21:18Z,42.805,6.029,13.2967,4.59968,2469.947,2020-2-19T12:21:53Z
2020-02-19T10:24:21Z,42.805,6.029,13.2965,4.59969,2469.96,2020-2-19T12:24:56Z
2020-02-19T10:27:24Z,42.805,6.029,13.2967,4.59971,2469.993,2020-2-19T12:28:00Z
2020-02-19T10:30:28Z,42.805,6.029,13.2970,4.59969,2469.923,2020-2-19T12:31:03Z
2020-02-19T10:33:31Z,42.805,6.029,13.2971,4.59970,2469.947,2020-2-19T12:34:06Z
2020-02-19T10:36:34Z,42.805,6.029,13.2969,4.59968,2469.923,2020-2-19T12:37:09Z
2020-02-19T10:39:37Z,42.805,6.029,13.2968,4.59968,2469.96,2020-2-19T12:40:12Z
2020-02-19T10:42:40Z,42.805,6.029,13.2966,4.59968,2469.97,2020-2-19T12:43:16Z
2020-02-19T10:45:44Z,42.805,6.029,13.2967,4.59970,2469.97,2020-2-19T12:46:19Z
2020-02-19T10:48:47Z,42.805,6.029,13.2968,4.59970,2469.909,2020-2-19T12:49:22Z
2020-02-19T10:51:50Z,42.805,6.029,13.2971,4.59971,2469.97,2020-2-19T12:52:25Z
2020-02-19T10:54:53Z,42.805,6.029,13.2968,4.59969,2469.97,2020-2-19T12:55:29Z
2020-02-19T10:57:57Z,42.805,6.029,13.2967,4.59968,2469.923,2020-2-19T12:58:32Z
2020-02-19T11:01:00Z,42.805,6.029,13.2965,4.59971,2469.937,2020-2-19T13:01:35Z
2020-02-19T11:04:03Z,42.805,6.029,13.2968,4.59969,2469.96,2020-2-19T13:04:39Z
2020-02-19T11:07:07Z,42.805,6.029,13.2967,4.59969,2469.937,2020-2-19T13:07:42Z
2020-02-19T11:10:10Z,42.805,6.029,13.2972,4.59969,2469.96,2020-2-19T13:10:45Z
2020-02-19T11:13:13Z,42.805,6.029,13.2968,4.59968,2469.96,2020-2-19T13:13:48Z
2020-02-19T11:16:16Z,42.805,6.029,13.2970,4.59970,2469.937,2020-2-19T13:16:51Z
2020-02-19T11:19:19Z,42.805,6.029,13.2966,4.59971,2469.96,2020-2-19T13:19:55Z
2020-02-19T11:22:23Z,42.805,6.029,13.2967,4.59973,2469.947,2020-2-19T13:22:58Z
2020-02-19T11:25:26Z,42.805,6.029,13.2971,4.59969,2469.96,2020-2-19T13:26:01Z
2020-02-19T11:28:29Z,42.805,6.029,13.2968,4.59968,2469.97,2020-2-19T13:29:04Z
2020-02-19T11:31:32Z,42.805,6.029,13.2968,4.59968,2469.923,2020-2-19T13:32:07Z
2020-02-19T11:34:35Z,42.805,6.029,13.2971,4.59969,2469.947,2020-2-19T13:35:11Z
2020-02-19T11:37:39Z,42.805,6.029,13.2967,4.59969,2469.923,2020-2-19T13:38:14Z
2020-02-19T11:40:42Z,42.805,6.029,13.2970,4.59969,2469.97,2020-2-19T13:41:17Z
2020-02-19T11:43:45Z,42.805,6.029,13.2967,4.59969,2469.96,2020-2-19T13:44:20Z
2020-02-19T11:46:48Z,42.805,6.029,13.2970,4.59970,2469.937,2020-2-19T13:47:24Z
2020-02-19T11:49:52Z,42.805,6.029,13.2967,4.59969,2469.984,2020-2-19T13:50:27Z
2020-02-19T11:52:55Z,42.805,6.029,13.2970,4.59968,2469.96,2020-2-19T13:53:30Z
2020-02-19T11:55:58Z,42.805,6.029,13.2968,4.59971,2469.947,2020-2-19T13:56:33Z
2020-02-19T11:59:01Z,42.805,6.029,13.2967,4.59969,2469.96,2020-2-19T13:59:36Z
2020-02-19T12:02:04Z,42.805,6.029,13.2967,4.59968,2469.984,2020-2-19T14:02:40Z
2020-02-19T12:05:08Z,42.805,6.029,13.2964,4.59970,2469.947,2020-2-19T14:05:43Z
2020-02-19T12:08:11Z,42.805,6.029,13.2967,4.59968,2469.947,2020-2-19T14:08:46Z
2020-02-19T12:11:14Z,42.805,6.029,13.2968,4.59967,2469.947,2020-2-19T14:11:49Z
2020-02-19T12:14:17Z,42.805,6.029,13.2967,4.59970,2469.937,2020-2-19T14:14:52Z
2020-02-19T12:17:20Z,42.805,6.029,13.2971,4.59971,2469.923,2020-2-19T14:17:56Z
2020-02-19T12:20:24Z,42.805,6.029,13.2970,4.59968,2469.937,2020-2-19T14:20:59Z
2020-02-19T12:23:27Z,42.805,6.029,13.2975,4.59968,2469.947,2020-2-19T14:24:02Z
2020-02-19T12:26:30Z,42.805,6.029,13.2971,4.59968,2469.937,2020-2-19T14:27:05Z
2020-02-19T12:29:33Z,42.805,6.029,13.2968,4.59968,2469.947,2020-2-19T14:30:08Z
2020-02-19T12:32:36Z,42.805,6.029,13.2971,4.59968,2469.914,2020-2-19T14:33:12Z
2020-02-19T12:35:40Z,42.805,6.029,13.2968,4.59969,2469.937,2020-2-19T14:36:15Z
2020-02-19T12:38:43Z,42.805,6.029,13.2967,4.59971,2469.937,2020-2-19T14:39:18Z
2020-02-19T12:41:46Z,42.805,6.029,13.2968,4.59968,2469.96,2020-2-19T14:42:21Z
2020-02-19T12:44:49Z,42.805,6.029,13.2967,4.59970,2469.96,2020-2-19T14:45:25Z
2020-02-19T12:47:53Z,42.805,6.029,13.2968,4.59969,2469.947,2020-2-19T14:48:28Z
2020-02-19T12:50:56Z,42.805,6.029,13.2969,4.59968,2469.937,2020-2-19T14:51:31Z
2020-02-19T12:53:59Z,42.805,6.029,13.2967,4.59970,2469.923,2020-2-19T14:54:34Z
2020-02-19T12:57:02Z,42.805,6.029,13.2966,4.59968,2469.923,2020-2-19T14:57:37Z
2020-02-19T13:00:05Z,42.805,6.029,13.2970,4.59971,2469.947,2020-2-19T15:00:41Z
2020-02-19T13:03:09Z,42.805,6.029,13.2968,4.59969,2469.937,2020-2-19T15:03:44Z
2020-02-19T13:06:12Z,42.805,6.029,13.2968,4.59969,2469.947,2020-2-19T15:06:47Z
2020-02-19T13:09:15Z,42.805,6.029,13.2964,4.59969,2469.96,2020-2-19T15:09:50Z
2020-02-19T13:12:18Z,42.805,6.029,13.2970,4.59972,2469.937,2020-2-19T15:12:53Z
2020-02-19T13:15:21Z,42.805,6.029,13.2967,4.59968,2469.923,2020-2-19T15:15:57Z
2020-02-19T13:18:25Z,42.805,6.029,13.2967,4.59969,2469.947,2020-2-19T15:19:00Z
2020-02-19T13:21:28Z,42.805,6.029,13.2968,4.59968,2469.96,2020-2-19T15:22:03Z
2020-02-19T13:24:31Z,42.805,6.029,13.2968,4.59970,2469.937,2020-2-19T15:25:06Z
2020-02-19T13:27:34Z,42.805,6.029,13.2970,4.59968,2469.947,2020-2-19T15:28:10Z
2020-02-19T13:30:38Z,42.805,6.029,13.2965,4.59968,2469.947,2020-2-19T15:31:13Z
2020-02-19T13:33:41Z,42.805,6.029,13.2967,4.59968,2469.923,2020-2-19T15:34:16Z
2020-02-19T13:36:44Z,42.805,6.029,13.2969,4.59968,2469.923,2020-2-19T15:37:19Z
2020-02-19T13:39:47Z,42.805,6.029,13.2968,4.59968,2469.923,2020-2-19T15:40:22Z
2020-02-19T13:42:50Z,42.805,6.029,13.2967,4.59968,2469.96,2020-2-19T15:43:26Z
2020-02-19T13:45:54Z,42.805,6.029,13.2969,4.59968,2469.937,2020-2-19T15:46:29Z
2020-02-19T13:48:57Z,42.805,6.029,13.2968,4.59968,2469.947,2020-2-19T15:49:32Z
2020-02-19T13:52:00Z,42.805,6.029,13.2967,4.59968,2469.937,2020-2-19T15:52:35Z
2020-02-19T13:55:03Z,42.805,6.029,13.2967,4.59969,2469.937,2020-2-19T15:55:38Z
2020-02-19T13:58:06Z,42.805,6.029,13.2966,4.59967,2469.937,2020-2-19T15:58:42Z
2020-02-19T14:01:10Z,42.805,6.029,13.2969,4.59968,2469.947,2020-2-19T16:01:45Z
2020-02-19T14:04:13Z,42.805,6.029,13.2968,4.59968,2469.993,2020-2-19T16:04:48Z
2020-02-19T14:07:16Z,42.805,6.029,13.2967,4.59968,2469.937,2020-2-19T16:07:51Z
2020-02-19T14:10:19Z,42.805,6.029,13.2967,4.59970,2469.96,2020-2-19T16:10:54Z
2020-02-19T14:13:23Z,42.805,6.029,13.2966,4.59969,2469.923,2020-2-19T16:13:58Z
2020-02-19T14:16:26Z,42.805,6.029,13.2967,4.59968,2469.984,2020-2-19T16:17:01Z
2020-02-19T14:19:29Z,42.805,6.029,13.2970,4.59969,2469.993,2020-2-19T16:20:04Z
2020-02-19T14:22:32Z,42.805,6.029,13.2969,4.59969,2469.96,2020-2-19T16:23:07Z
2020-02-19T14:25:35Z,42.805,6.029,13.2967,4.59969,2469.947,2020-2-19T16:26:11Z
2020-02-19T14:28:39Z,42.805,6.029,13.2968,4.59967,2469.96,2020-2-19T16:29:14Z
2020-02-19T14:31:42Z,42.805,6.029,13.2968,4.59968,2469.923,2020-2-19T16:32:17Z
2020-02-19T14:34:45Z,42.805,6.029,13.2964,4.59968,2469.947,2020-2-19T16:35:20Z
2020-02-19T14:37:48Z,42.805,6.029,13.2965,4.59968,2469.984,2020-2-19T16:38:23Z
2020-02-19T14:40:51Z,42.805,6.029,13.2967,4.59968,2469.97,2020-2-19T16:41:27Z
2020-02-19T14:43:55Z,42.805,6.029,13.2967,4.59968,2469.937,2020-2-19T16:44:30Z
2020-02-19T14:46:58Z,42.805,6.029,13.2968,4.59968,2469.96,2020-2-19T16:47:33Z
2020-02-19T14:50:01Z,42.805,6.029,13.2971,4.59971,2469.97,2020-2-19T16:50:36Z
2020-02-19T14:53:04Z,42.805,6.029,13.2969,4.59970,2469.947,2020-2-19T16:53:39Z
2020-02-19T14:56:07Z,42.805,6.029,13.2967,4.59968,2469.984,2020-2-19T16:56:43Z
2020-02-19T14:59:11Z,42.805,6.029,13.2971,4.59969,2469.96,2020-2-19T16:59:46Z
2020-02-19T15:02:14Z,42.805,6.029,13.2967,4.59968,2469.96,2020-2-19T17:02:49Z
2020-02-19T15:05:17Z,42.805,6.029,13.2967,4.59968,2469.947,2020-2-19T17:05:52Z
2020-02-19T15:08:20Z,42.805,6.029,13.2969,4.59968,2469.97,2020-2-19T17:08:55Z
2020-02-19T15:11:23Z,42.805,6.029,13.2968,4.59969,2469.97,2020-2-19T17:11:59Z
2020-02-19T15:14:27Z,42.805,6.029,13.2969,4.59969,2469.923,2020-2-19T17:15:02Z